EW8360 Weather Reports


time (UTC)temp
C
wind
direction
speed
KPH
gust
KPH
rain 1hr
cm
rain 24hr
cm
rain mn
cm
humidity
%
barometer
mb
20260508164046 16 256 0.0 9.7 0.00 0.00 0.00 80 1014.8
20260508163544 16 272 1.6 8.0 0.00 0.00 0.00 82 1014.8
20260508163041 16 281 3.2 9.7 0.00 0.00 0.00 82 1014.8
20260508162545 16 283 6.4 9.7 0.00 0.00 0.00 83 1014.8
20260508162046 16 358 3.2 9.7 0.00 0.00 0.00 83 1014.8
20260508161544 16 2 4.8 11.3 0.00 0.00 0.00 83 1014.7
20260508161045 16 300 6.4 11.3 0.00 0.00 0.00 84 1014.8
20260508160546 16 338 8.0 11.3 0.00 0.00 0.00 84 1014.9
20260508160045 16 286 0.0 8.0 0.00 0.00 0.00 85 1014.9
20260508155544 16 277 4.8 4.8 0.00 0.00 0.00 84 1014.9
20260508155044 16 271 3.2 3.2 0.00 0.00 0.00 84 1015.0
20260508154804 16 259 0.0 3.2 0.00 0.00 0.00 84 1014.9
20260508154044 16 254 1.6 4.8 0.00 0.00 0.00 84 1014.9
20260508153543 16 282 1.6 4.8 0.00 0.00 0.00 85 1014.9
20260508153304 16 283 1.6 8.0 0.00 0.00 0.00 85 1015.0
20260508152544 16 246 1.6 8.0 0.00 0.00 0.00 86 1015.0
20260508152044 16 232 6.4 8.0 0.00 0.00 0.00 85 1015.0
20260508151808 16 256 0.0 8.0 0.00 0.00 0.00 86 1014.9
20260508151305 16 237 0.0 8.0 0.00 0.00 0.00 86 1015.0
20260508150544 16 263 3.2 4.8 0.00 0.00 0.00 86 1014.9
20260508150043 16 264 1.6 4.8 0.00 0.00 0.00 87 1015.0
20260508145542 16 291 1.6 4.8 0.00 0.00 0.00 87 1015.0
20260508145307 16 250 0.0 3.2 0.00 0.00 0.00 87 1014.9
20260508144544 16 257 1.6 3.2 0.00 0.00 0.00 87 1014.9
20260508144045 15 265 0.0 0.0 0.00 0.00 0.00 87 1014.9
20260508143541 15 267 0.0 1.6 0.00 0.00 0.00 87 1014.9
20260508143041 15 256 0.0 1.6 0.00 0.00 0.00 87 1014.9
20260508142543 15 258 0.0 1.6 0.00 0.00 0.00 87 1014.9
20260508142043 15 256 0.0 1.6 0.00 0.00 0.00 87 1014.8
20260508141544 15 257 0.0 1.6 0.00 0.00 0.00 88 1014.7
20260508141043 15 267 0.0 1.6 0.00 0.00 0.00 88 1014.7
20260508140541 15 269 0.0 1.6 0.00 0.00 0.00 88 1014.6
20260508140042 15 234 1.6 1.6 0.00 0.00 0.00 88 1014.7
20260508135542 15 248 0.0 1.6 0.00 0.00 0.00 88 1014.7
20260508135041 15 255 0.0 1.6 0.00 0.00 0.00 88 1014.6
20260508134540 15 245 0.0 3.2 0.00 0.00 0.00 88 1014.6
20260508134041 15 224 1.6 3.2 0.00 0.00 0.00 88 1014.6
20260508133543 15 220 1.6 3.2 0.00 0.00 0.00 88 1014.4
20260508133040 15 248 0.0 3.2 0.00 0.00 0.00 89 1014.4
20260508132541 15 225 3.2 3.2 0.00 0.00 0.00 89 1014.4
20260508132040 15 231 1.6 1.6 0.00 0.00 0.00 89 1014.3
20260508131541 15 248 0.0 1.6 0.00 0.00 0.00 89 1014.3
20260508131040 15 251 0.0 4.8 0.00 0.00 0.00 89 1014.2
20260508130540 15 251 0.0 4.8 0.00 0.00 0.00 89 1014.4
20260508130041 15 220 3.2 3.2 0.00 0.00 0.00 89 1014.2
20260508125541 15 244 0.0 1.6 0.00 0.00 0.00 89 1014.2
20260508125039 15 252 0.0 4.8 0.00 0.00 0.00 89 1014.2
20260508124540 15 254 0.0 4.8 0.00 0.00 0.00 89 1014.2
20260508124306 15 244 1.6 3.2 0.00 0.00 0.00 89 1014.1
20260508123539 15 254 0.0 1.6 0.00 0.00 0.00 89 1014.1
20260508123300 15 265 0.0 1.6 0.00 0.00 0.00 90 1014.2
20260508122041 15 262 0.0 1.6 0.00 0.00 0.00 89 1014.1
20260508121541 15 251 0.0 3.2 0.00 0.00 0.00 89 1014.1
20260508121038 15 259 0.0 3.2 0.00 0.00 0.00 89 1014.1
20260508120538 15 234 1.6 3.2 0.00 0.00 0.00 89 1014.1
20260508120039 15 249 0.0 3.2 0.00 0.00 0.00 89 1014.2
20260508115540 15 247 0.0 4.8 0.00 0.00 0.00 89 1014.1
20260508115038 15 250 0.0 4.8 0.00 0.00 0.00 89 1014.1
20260508114537 15 241 0.0 0.0 0.00 0.00 0.00 89 1014.1
20260508114039 15 243 0.0 0.0 0.00 0.00 0.00 89 1014.0
20260508113539 15 252 0.0 3.2 0.00 0.00 0.00 89 1014.1
20260508113037 15 262 0.0 3.2 0.00 0.00 0.00 89 1014.1
20260508112538 15 239 1.6 3.2 0.00 0.00 0.00 89 1014.0
20260508112039 15 256 0.0 3.2 0.00 0.00 0.00 89 1014.0
20260508111539 15 251 0.0 9.7 0.00 0.00 0.00 89 1014.0
20260508111037 15 226 1.6 9.7 0.00 0.00 0.00 89 1014.0
20260508110537 15 240 4.8 8.0 0.00 0.00 0.00 89 1014.0
20260508110036 15 241 1.6 4.8 0.00 0.00 0.00 88 1014.1
20260508105537 15 253 1.6 3.2 0.00 0.00 0.00 88 1014.0
20260508105038 15 243 1.6 3.2 0.00 0.00 0.00 88 1014.1
20260508104537 15 253 0.0 3.2 0.00 0.00 0.00 88 1014.0
20260508104036 15 248 0.0 4.8 0.00 0.00 0.00 88 1014.1
20260508103538 15 231 1.6 8.0 0.00 0.00 0.00 88 1014.1
20260508103257 15 245 1.6 8.0 0.00 0.00 0.00 88 1014.2
20260508102758 15 215 3.2 8.0 0.00 0.00 0.00 88 1014.3
20260508102036 15 258 4.8 8.0 0.00 0.00 0.00 88 1014.3
20260508101535 15 224 3.2 4.8 0.00 0.00 0.00 88 1014.3
20260508101036 15 248 0.0 3.2 0.00 0.00 0.00 88 1014.4
20260508100536 15 238 1.6 3.2 0.00 0.00 0.00 88 1014.4
20260508100034 15 243 1.6 8.0 0.00 0.00 0.00 88 1014.4
20260508095801 15 241 1.6 9.7 0.00 0.00 0.00 88 1014.3
20260508095035 15 223 3.2 9.7 0.00 0.00 0.00 88 1014.3
20260508094534 15 202 3.2 4.8 0.00 0.00 0.00 88 1014.2
20260508094033 15 239 1.6 4.8 0.00 0.00 0.00 89 1014.2
20260508093535 15 226 3.2 3.2 0.00 0.00 0.00 88 1014.1
20260508093035 15 245 0.0 3.2 0.00 0.00 0.00 88 1014.2
20260508092535 15 252 0.0 1.6 0.00 0.00 0.00 88 1014.2
20260508092033 15 244 0.0 0.0 0.00 0.00 0.00 89 1014.2
20260508091534 15 261 0.0 0.0 0.00 0.00 0.00 89 1014.3
20260508091034 15 270 0.0 1.6 0.00 0.00 0.00 89 1014.2
20260508090534 15 295 1.6 3.2 0.00 0.00 0.00 89 1014.2
20260508090033 15 231 1.6 3.2 0.00 0.00 0.00 89 1014.2
20260508085534 15 226 1.6 4.8 0.00 0.00 0.00 89 1014.3
20260508085034 15 223 3.2 8.0 0.00 0.00 0.00 89 1014.3
20260508084533 15 191 3.2 8.0 0.00 0.00 0.00 88 1014.4
20260508084033 15 234 1.6 4.8 0.00 0.00 0.00 88 1014.4
20260508083534 15 267 0.0 3.2 0.00 0.00 0.00 88 1014.4
20260508083033 15 244 1.6 3.2 0.00 0.00 0.00 88 1014.5
20260508082532 15 296 1.6 3.2 0.00 0.00 0.00 89 1014.5
20260508082031 15 251 1.6 4.8 0.00 0.00 0.00 88 1014.5
20260508081753 15 240 1.6 8.0 0.00 0.00 0.00 88 1014.7
20260508081033 16 169 4.8 8.0 0.00 0.00 0.00 89 1014.7
20260508080532 16 189 4.8 4.8 0.00 0.00 0.00 88 1014.7
20260508080032 16 224 3.2 3.2 0.00 0.00 0.00 88 1014.8
20260508075533 16 252 0.0 1.6 0.00 0.00 0.00 88 1014.8
20260508075253 16 246 0.0 1.6 0.00 0.00 0.00 88 1014.9
20260508074531 16 256 0.0 4.8 0.00 0.00 0.00 88 1014.9
20260508074031 16 246 0.0 4.8 0.00 0.00 0.00 88 1014.9
20260508073755 16 332 0.0 3.2 0.00 0.00 0.00 87 1014.8
20260508073032 16 248 0.0 1.6 0.00 0.00 0.00 87 1014.9
20260508072532 16 258 0.0 1.6 0.00 0.00 0.00 87 1014.8
20260508072032 16 243 0.0 1.6 0.00 0.00 0.00 87 1014.8
20260508071530 16 250 0.0 1.6 0.00 0.00 0.00 87 1014.9
20260508071032 15 248 0.0 3.2 0.00 0.00 0.00 87 1015.0
20260508070531 15 254 0.0 3.2 0.00 0.00 0.00 87 1015.0
20260508070030 15 252 0.0 1.6 0.00 0.00 0.00 88 1015.0
20260508065530 15 262 0.0 1.6 0.00 0.00 0.00 88 1015.0
20260508065257 15 239 0.0 3.2 0.00 0.00 0.00 88 1015.1
20260508064530 16 238 1.6 3.2 0.00 0.00 0.00 87 1015.1
20260508064031 16 243 1.6 3.2 0.00 0.00 0.00 87 1015.1
20260508063530 16 235 1.6 4.8 0.00 0.00 0.00 87 1015.2
20260508063030 16 225 1.6 8.0 0.00 0.00 0.00 87 1015.1
20260508062531 16 271 0.0 8.0 0.00 0.00 0.00 87 1015.1
20260508062029 16 158 4.8 8.0 0.00 0.00 0.00 87 1015.1
20260508061529 16 221 0.0 3.2 0.00 0.00 0.00 87 1015.2
20260508061030 16 237 0.0 3.2 0.00 0.00 0.00 87 1015.2
20260508060531 16 242 0.0 4.8 0.00 0.00 0.00 86 1015.2
20260508060029 16 252 0.0 8.0 0.00 0.00 0.00 87 1015.3
20260508055529 16 250 3.2 9.7 0.00 0.00 0.00 87 1015.2
20260508055029 16 224 4.8 9.7 0.00 0.00 0.00 87 1015.2
20260508054530 16 212 4.8 8.0 0.00 0.00 0.00 87 1015.1
20260508054029 16 240 3.2 8.0 0.00 0.00 0.00 87 1015.2
20260508053529 16 213 4.8 8.0 0.00 0.00 0.00 86 1015.1
20260508053253 16 242 1.6 3.2 0.00 0.00 0.00 86 1015.1
20260508052529 16 253 0.0 1.6 0.00 0.00 0.00 86 1015.1
20260508052028 16 255 0.0 1.6 0.00 0.00 0.00 86 1015.1
20260508051528 16 264 0.0 1.6 0.00 0.00 0.00 86 1015.1
20260508051031 16 253 1.6 4.8 0.00 0.00 0.00 86 1015.1
20260508050530 16 243 1.6 8.0 0.00 0.00 0.00 86 1015.1
20260508050028 16 236 3.2 9.7 0.00 0.00 0.00 86 1015.1
20260508045748 16 254 0.0 9.7 0.00 0.00 0.00 86 1015.1
20260508045029 16 248 1.6 8.0 0.00 0.00 0.00 86 1015.1
20260508044757 16 221 6.4 8.0 0.00 0.00 0.00 86 1015.1
20260508044027 16 243 1.6 9.7 0.00 0.00 0.00 86 1015.1
20260508043528 16 245 3.2 12.9 0.00 0.00 0.00 86 1015.0
20260508043028 16 218 6.4 12.9 0.00 0.00 0.00 86 1014.9
20260508042528 16 220 9.7 11.3 0.00 0.00 0.00 86 1014.8
20260508042026 16 263 1.6 4.8 0.00 0.00 0.00 86 1014.7
20260508041751 16 257 0.0 4.8 0.00 0.00 0.00 86 1014.6
20260508041026 16 251 3.2 4.8 0.00 0.00 0.00 86 1014.5
20260508040528 16 244 0.0 3.2 0.00 0.00 0.00 86 1014.5
20260508040249 16 264 0.0 3.2 0.00 0.00 0.00 86 1014.4
20260508035526 16 266 3.2 3.2 0.00 0.00 0.00 86 1014.4
20260508035026 16 265 0.0 3.2 0.00 0.00 0.00 86 1014.4
20260508034748 16 270 0.0 4.8 0.00 0.00 0.00 86 1014.4
20260508034027 15 239 0.0 4.8 0.00 0.00 0.00 87 1014.2
20260508033525 15 227 3.2 3.2 0.00 0.00 0.00 87 1014.3
20260508033026 15 254 0.0 4.8 0.00 0.00 0.00 87 1014.2
20260508032027 15 250 1.6 8.0 0.00 0.00 0.00 87 1014.1
20260508031526 15 260 3.2 8.0 0.00 0.00 0.00 88 1014.0
20260508031247 15 250 0.0 8.0 0.00 0.00 0.00 87 1013.9
20260508030750 16 233 6.4 8.0 0.00 0.00 0.00 87 1013.8
20260508030026 16 276 4.8 8.0 0.00 0.00 0.00 87 1013.8
20260508025525 16 263 1.6 8.0 0.00 0.00 0.00 87 1013.7
20260508025025 16 260 3.2 9.7 0.00 0.00 0.00 87 1013.6
20260508024746 16 286 3.2 9.7 0.00 0.00 0.00 86 1013.5
20260508024026 16 258 1.6 9.7 0.00 0.00 0.00 86 1013.5
20260508023524 16 272 3.2 9.7 0.00 0.00 0.00 85 1013.5
20260508023025 17 330 4.8 9.7 0.00 0.00 0.00 84 1013.4
20260508022748 17 289 4.8 9.7 0.00 0.00 0.00 84 1013.5
20260508022025 17 260 6.4 8.0 0.00 0.00 0.00 82 1013.4
20260508021525 17 305 4.8 8.0 0.00 0.00 0.00 82 1013.4
20260508021025 17 282 3.2 8.0 0.00 0.00 0.00 81 1013.2
20260508020525 17 265 4.8 8.0 0.00 0.00 0.00 80 1013.2
20260508020024 17 309 1.6 8.0 0.00 0.00 0.00 80 1013.1
20260508015524 18 280 3.2 9.7 0.00 0.00 0.00 80 1013.1
20260508015245 18 312 3.2 9.7 0.00 0.00 0.00 79 1013.1
20260508014526 18 265 4.8 9.7 0.00 0.00 0.00 79 1013.2
20260508014025 18 339 6.4 9.7 0.00 0.00 0.00 78 1013.1
20260508013523 18 256 4.8 11.3 0.00 0.00 0.00 76 1013.1
20260508013023 18 331 6.4 11.3 0.00 0.00 0.00 77 1013.1
20260508012524 18 271 3.2 9.7 0.00 0.00 0.00 76 1013.0
20260508012024 18 277 4.8 8.0 0.00 0.00 0.00 76 1013.1
20260508011525 18 280 3.2 11.3 0.00 0.00 0.00 75 1013.0
20260508011023 18 339 8.0 11.3 0.00 0.00 0.00 75 1013.0
20260508010522 18 287 3.2 11.3 0.00 0.00 0.00 75 1013.0
20260508010023 18 297 6.4 12.9 0.00 0.00 0.00 76 1013.0
20260508005523 18 340 4.8 12.9 0.00 0.00 0.00 76 1013.0
20260508005023 19 354 4.8 12.9 0.00 0.00 0.00 76 1013.0
20260508004523 19 332 4.8 9.7 0.00 0.00 0.00 75 1013.1
20260508004023 19 335 6.4 9.7 0.00 0.00 0.00 76 1013.1
20260508003524 19 16 1.6 12.9 0.00 0.00 0.00 74 1013.1
20260508003022 19 275 4.8 12.9 0.00 0.00 0.00 75 1013.1
20260508002522 19 334 6.4 12.9 0.00 0.00 0.00 74 1013.1
20260508002023 19 348 8.0 12.9 0.00 0.00 0.00 75 1013.2
20260508001523 19 292 6.4 12.9 0.00 0.00 0.00 74 1013.1
20260508001021 19 273 3.2 11.3 0.00 0.00 0.00 74 1013.1
20260508000522 19 291 8.0 12.9 0.00 0.00 0.00 74 1013.1
20260508000022 19 280 4.8 12.9 0.00 0.00 0.00 74 1013.2
20260507235522 19 234 6.4 14.5 0.00 0.00 0.00 73 1013.1
20260507235021 19 270 4.8 14.5 0.00 0.00 0.00 73 1013.1
20260507234520 19 352 6.4 9.7 0.00 0.00 0.00 72 1013.2
20260507234243 19 268 1.6 16.1 0.00 0.00 0.00 73 1013.1
20260507233521 19 266 4.8 16.1 0.00 0.00 0.00 74 1013.3
20260507233020 19 2 11.3 14.5 0.00 0.00 0.00 73 1013.0
20260507232522 19 341 6.4 14.5 0.00 0.00 0.00 73 1013.1
20260507232021 19 342 3.2 11.3 0.00 0.00 0.00 72 1013.1
20260507231522 19 262 1.6 16.1 0.00 0.00 0.00 73 1013.1
20260507231020 20 258 9.7 16.1 0.00 0.00 0.00 74 1013.1
20260507230520 20 301 11.3 12.9 0.00 0.00 0.00 72 1013.2
20260507230246 20 303 9.7 14.5 0.00 0.00 0.00 72 1013.2
20260507225246 20 315 8.0 16.1 0.00 0.00 0.00 73 1013.2
20260507224743 20 268 8.0 16.1 0.00 0.00 0.00 73 1013.2
20260507224243 20 274 4.8 14.5 0.00 0.00 0.00 71 1013.2
20260507223521 20 268 4.8 14.5 0.00 0.00 0.00 72 1013.2
20260507223019 19 347 3.2 19.3 0.00 0.00 0.00 72 1013.3
20260507222519 19 263 6.4 19.3 0.00 0.00 0.00 73 1013.3
20260507222243 19 281 8.0 14.5 0.00 0.00 0.00 73 1013.4
20260507221520 19 313 8.0 14.5 0.00 0.00 0.00 72 1013.4
20260507221019 19 256 8.0 20.9 0.00 0.00 0.00 72 1013.4
20260507220518 19 275 6.4 20.9 0.00 0.00 0.00 74 1013.5
20260507220020 20 251 6.4 16.1 0.00 0.00 0.00 72 1013.5
20260507215750 20 268 4.8 16.1 0.00 0.00 0.00 73 1013.6
20260507215246 19 250 3.2 19.3 0.00 0.00 0.00 73 1013.7
20260507214518 19 345 3.2 19.3 0.00 0.00 0.00 72 1013.6
20260507214019 19 247 9.7 14.5 0.00 0.00 0.00 73 1013.8
20260507213735 19 346 11.3 14.5 0.00 0.00 0.00 73 1013.8
20260507213019 19 339 8.0 20.9 0.00 0.00 0.00 74 1013.9
20260507212519 19 319 9.7 20.9 0.00 0.00 0.00 74 1013.9
20260507212017 19 353 1.6 20.9 0.00 0.00 0.00 74 1013.9
20260507211737 19 295 6.4 19.3 0.00 0.00 0.00 72 1014.0
20260507211019 19 241 11.3 19.3 0.00 0.00 0.00 73 1014.0
20260507210518 19 347 14.5 19.3 0.00 0.00 0.00 73 1014.1
20260507210241 19 323 9.7 22.5 0.00 0.00 0.00 73 1014.0
20260507205518 19 273 3.2 22.5 0.00 0.00 0.00 74 1014.1
20260507205031 19 2 8.0 20.9 0.00 0.00 0.00 75 1014.1
20260507204518 19 298 12.9 20.9 0.00 0.00 0.00 73 1014.2
20260507204017 19 335 3.2 20.9 0.00 0.00 0.00 74 1014.1
20260507203518 19 320 11.3 20.9 0.00 0.00 0.00 75 1014.2
20260507203243 19 12 6.4 20.9 0.00 0.00 0.00 74 1014.2
20260507202742 19 255 6.4 20.9 0.00 0.00 0.00 71 1014.2
20260507202017 19 4 8.0 22.5 0.00 0.00 0.00 74 1014.2
20260507201517 19 238 3.2 22.5 0.00 0.00 0.00 74 1014.3
20260507201244 19 341 11.3 20.9 0.00 0.00 0.00 73 1014.2
20260507200516 20 1 12.9 19.3 0.00 0.00 0.00 73 1014.2
20260507200017 20 1 9.7 16.1 0.00 0.00 0.00 72 1014.3
20260507195734 20 348 6.4 14.5 0.00 0.00 0.00 73 1014.3
20260507195017 20 274 9.7 14.5 0.00 0.00 0.00 71 1014.4
20260507194516 20 313 8.0 19.3 0.00 0.00 0.00 72 1014.3
20260507194016 20 344 6.4 20.9 0.00 0.00 0.00 72 1014.3
20260507193742 20 331 11.3 20.9 0.00 0.00 0.00 74 1014.3
20260507193018 19 310 6.4 14.5 0.00 0.00 0.00 71 1014.3
20260507192515 19 250 4.8 16.1 0.00 0.00 0.00 73 1014.3
20260507192015 19 319 6.4 16.1 0.00 0.00 0.00 73 1014.3
20260507191517 19 263 8.0 16.1 0.00 0.00 0.00 74 1014.4
20260507191017 19 276 3.2 16.1 0.00 0.00 0.00 72 1014.5
20260507190016 19 297 6.4 14.5 0.00 0.00 0.00 73 1014.7
20260507185516 19 254 3.2 14.5 0.00 0.00 0.00 72 1014.6
20260507185016 19 331 4.8 14.5 0.00 0.00 0.00 74 1014.8
20260507184516 19 268 4.8 14.5 0.00 0.00 0.00 73 1014.8
20260507184015 19 267 6.4 14.5 0.00 0.00 0.00 73 1014.8
20260507183731 19 346 8.0 14.5 0.00 0.00 0.00 73 1014.8
20260507183248 19 267 9.7 19.3 0.00 0.00 0.00 72 1014.8
20260507182517 19 304 12.9 19.3 0.00 0.00 0.00 74 1014.8
20260507182015 19 250 3.2 16.1 0.00 0.00 0.00 74 1014.9
20260507181514 19 314 9.7 16.1 0.00 0.00 0.00 74 1014.9
20260507181015 19 344 6.4 16.1 0.00 0.00 0.00 74 1014.9
20260507180515 19 336 8.0 16.1 0.00 0.00 0.00 73 1014.9
20260507180016 19 246 4.8 11.3 0.00 0.00 0.00 73 1014.9
20260507175514 18 312 4.8 12.9 0.00 0.00 0.00 72 1014.9
20260507175015 18 350 1.6 12.9 0.00 0.00 0.00 73 1015.0
20260507174515 18 331 4.8 12.9 0.00 0.00 0.00 75 1015.1
20260507174014 18 296 4.8 11.3 0.00 0.00 0.00 75 1015.0
20260507173514 18 295 3.2 11.3 0.00 0.00 0.00 79 1015.1
20260507173015 18 267 3.2 16.1 0.00 0.00 0.00 75 1015.0
20260507172514 18 283 3.2 16.1 0.00 0.00 0.00 78 1015.1
20260507172013 18 261 3.2 9.7 0.00 0.00 0.00 77 1015.0
20260507171514 18 277 6.4 9.7 0.00 0.00 0.00 76 1015.1
20260507171013 17 255 4.8 9.7 0.00 0.00 0.00 76 1015.1
20260507170514 17 246 4.8 4.8 0.00 0.00 0.00 76 1015.2
20260507170013 17 261 4.8 12.9 0.00 0.00 0.00 77 1015.1
20260507165513 17 325 1.6 12.9 0.00 0.00 0.00 81 1015.2
20260507165012 17 317 8.0 9.7 0.00 0.00 0.00 80 1015.2
20260507164514 17 300 4.8 8.0 0.00 0.00 0.00 82 1015.2